This is the latest recevied weather packets stored in our database for station/object KD0ISH. If no packets are shown the sender has not sent any weather packets the latest 10 day(s).
| Time | Temp. | Humidity | Pressure | Rain* | Wind** | Luminosity | Snow |
|---|---|---|---|---|---|---|---|
| 1777901641 | 18.89° C | 62% | 1008 hPa | 0 mm | - | 62 W/m² | - |
| 1777901338 | 18.89° C | 62% | 1008 hPa | 0 mm | - | 92 W/m² | - |
| 1777901035 | 18.89° C | 62% | 1008 hPa | 0 mm | - | 49 W/m² | - |
| 1777900733 | 18.89° C | 62% | 1008 hPa | 0 mm | - | 210 W/m² | - |
| 1777900429 | 18.89° C | 64% | 1008.2 hPa | 0 mm | - | 63 W/m² | - |
| 1777900127 | 18.33° C | 63% | 1007.9 hPa | 0 mm | - | 42 W/m² | - |
| 1777899823 | 18.33° C | 63% | 1008.2 hPa | 0 mm | - | 44 W/m² | - |
| 1777899520 | 17.78° C | 64% | 1008.4 hPa | 0 mm | - | 65 W/m² | - |
| 1777899218 | 17.78° C | 65% | 1008.3 hPa | 0 mm | - | 42 W/m² | - |
| 1777898915 | 17.78° C | 65% | 1008.2 hPa | 0 mm | - | 103 W/m² | - |
| 1777898612 | 17.78° C | 65% | 1008.3 hPa | 0 mm | - | 35 W/m² | - |
| 1777898309 | 17.78° C | 65% | 1008.3 hPa | 0 mm | - | 96 W/m² | - |
| 1777898006 | 17.78° C | 65% | 1008.3 hPa | 0 mm | - | 36 W/m² | - |
| 1777897702 | 17.78° C | 65% | 1008.3 hPa | 0 mm | - | 62 W/m² | - |
| 1777897399 | 17.22° C | 65% | 1008.6 hPa | 0 mm | - | 55 W/m² | - |
| 1777897095 | 17.22° C | 65% | 1008.5 hPa | 0 mm | - | 48 W/m² | - |
| 1777896792 | 17.22° C | 65% | 1008.2 hPa | 0 mm | - | 43 W/m² | - |
| 1777896489 | 17.22° C | 65% | 1008.6 hPa | 0 mm | - | 34 W/m² | - |
| 1777896186 | 17.22° C | 65% | 1008.6 hPa | 0 mm | - | 29 W/m² | - |
| 1777895884 | 17.22° C | 65% | 1008.4 hPa | 0 mm | - | 25 W/m² | - |
| 1777895581 | 17.22° C | 65% | 1008.5 hPa | 0 mm | - | 19 W/m² | - |
| 1777895279 | 17.22° C | 65% | 1008.7 hPa | 0 mm | - | 18 W/m² | - |
| 1777894976 | 17.22° C | 64% | 1008.8 hPa | 0 mm | - | 12 W/m² | - |
| 1777894674 | 17.22° C | 64% | 1008.5 hPa | 0 mm | - | 9 W/m² | - |
| 1777894370 | 17.22° C | 64% | 1008.3 hPa | 0 mm | - | 6 W/m² | - |
* Rain latest hour (hover to see other rain measurements)
** Current wind speed in m/s (hover to see current wind gust speed)